Regional Weather Roundup
Issued by NWS

Home | Current Version | Previous Version | Graphics & Text | Print | Product List | Glossary On
Versions: 1 2 3 4 5 6 7 8 9 10 11 12 13 14 15 16 17 18 19 20 21 22 23 24 25 26 27 28 29 30 31 32 33 34 35 36 37 38 39 40 41 42 43 44 45 46 47 48 49 50
683
ASUS43 KDMX 100108
RWRIA

WEATHER ROUNDUP FOR IOWA
NATIONAL WEATHER SERVICE DES MOINES IA
700 PM CST TUE FEB 09 2016

NOTE: "FAIR" INDICATES FEW OR NO CLOUDS BELOW 12,000 FEET WITH NO
SIGNIFICANT WEATHER AND/OR OBSTRUCTIONS TO VISIBILITY.

* - THESE STATIONS ARE NOT NWS STATIONS...THUS NOT UNDER NWS
QUALITY CONTROL.  THEY ALSO DO NOT REPORT WEATHER SUCH
AS PRECIPITATION OR FOG.

IAZ001>003-012>014-020>022-031>034-043>046-100200-
   NORTHWEST IOWA

CITY           SKY/WX    TMP DP  RH WIND       PRES   REMARKS
CARROLL *      CLOUDY    18  12  79 NW18G26   30.19R WCI   2
CHEROKEE *     CLOUDY    21  12  68 NW10      30.21S WCI  10
DENISON *      CLOUDY    19  10  68 NW13      30.20S WCI   7
LE MARS *      CLOUDY    21  14  73 CALM      30.24S
ORANGE CITY *  PTCLDY    19  12  73 NW6       30.20F WCI  11
SHELDON *      CLOUDY    19  14  79 NW10      30.19S WCI   8
SIOUX CITY     CLOUDY    24  14  65 NW6       30.25S WCI  17
SPENCER        CLOUDY    19   9  65 NW14      30.18S WCI   6
STORM LAKE *   CLOUDY    19  12  73 NW17      30.18S WCI   4
$$

IAZ055>058-069>071-079>083-090>094-100200-
   SOUTHWEST IOWA

CITY           SKY/WX    TMP DP  RH WIND       PRES   REMARKS
ATLANTIC *     CLOUDY    19  10  68 NW13      30.22S WCI   7
AUDUBON *      MOCLDY    19  10  68 NW8       30.20R WCI   9
CLARINDA *     PTCLDY    19  10  68 NW13      30.27S WCI   7
COUNCIL BLFS * CLOUDY    21  12  68 NW6       30.25S WCI  14
CRESTON *      CLEAR     18   9  68 NW16G22   30.20R WCI   3
HARLAN  *      MOCLDY    18  12  79 NW14      30.26S WCI   4
LAMONI         CLEAR     17   7  64 NW17      30.18R WCI   1
RED OAK *      CLEAR     19  12  73 NW9       30.26S WCI   9
SHENANDOAH *   PTCLDY    21  12  68 NW7       30.27F WCI  13
$$

IAZ047>049-059>061-072>074-084-100200-
   CENTRAL IOWA

CITY           SKY/WX    TMP DP  RH WIND       PRES   REMARKS
AMES           CLEAR     15   6  67 NW14      30.17R WCI   0
ANKENY *       PTCLDY    16   7  67 NW14      30.18S WCI   1
BOONE *        PTCLDY    14   5  67 NW13G18   30.16R WCI   0
CHARITON *     MOCLDY    16   7  67 NW20G25   30.16S WCI  -1
DES MOINES     PTCLDY    17   7  64 NW14      30.18R WCI   3
GRINNELL*      PTCLDY    14   9  79 NW20      30.13R WCI  -3
KNOXVILLE *    MOCLDY    16   5  62 NW15      30.15R WCI   1
MARSHALLTOWN   CLEAR     13   5  70 NW20      30.13R WCI  -5
NEWTON *       FLURRIES  16   7  67 NW18G29   30.14R WCI  -1
PELLA *        CLEAR     14   7  73 NW13      30.17R WCI   0
$$

IAZ004>006-015-016-023>025-035-036-100200-
   NORTH CENTRAL IOWA

CITY           SKY/WX    TMP DP  RH WIND       PRES   REMARKS
ALGONA *       CLEAR     14   9  79 NW13      30.15S WCI   0
CLARION *      CLEAR     12   5  73 NW20      30.14S WCI  -6
ESTHERVILLE    CLEAR     13   7  77 NW14      30.16R WCI  -2
FORT DODGE *   CLEAR     12   3  67 NW7       30.18R WCI   2
MASON CITY     CLEAR     11   1  64 NW18      30.13R WCI  -7
FOREST CITY *  CLEAR     12   5  73 NW13G20   30.12S WCI  -3
WEBSTER CITY * CLEAR     14   7  73 NW18G25   30.14R WCI  -3
IOWA FALLS *     N/A     12   7  79 NW20      30.13S WCI  -6
$$

IAZ007>011-017>019-026>030-037>042-050>054-066-100200-
   NORTHEAST IOWA

CITY           SKY/WX    TMP DP  RH WIND       PRES   REMARKS
CEDAR RAPIDS   CLEAR     11   5  77 NW15      30.08R WCI  -5
CHARLES CITY * CLEAR     10   1  67 NW21      30.10R WCI  -9
CLINTON *      CLEAR     12   5  73 NW14      30.05R WCI  -3
DECORAH *      CLEAR     10  -2  56 NW14      30.04R WCI  -5
DUBUQUE        CLEAR     11   2  67 NW15      30.01R WCI  -5
MONTICELLO *   CLEAR     12   3  67 NW17      30.06R WCI  -5
OELWEIN *      CLEAR     10   1  67 NW17      30.08R WCI  -7
WATERLOO       CLEAR     11   2  67 NW20      30.11R WCI  -7
$$

IAZ064-065-067-068-078-100200-
   EAST CENTRAL IOWA

CITY           SKY/WX    TMP DP  RH WIND       PRES   REMARKS
DAVENPORT      CLEAR     13   3  64 NW21G28   30.06R WCI  -5
IOWA CITY      CLEAR     13   4  67 NW15G22   30.12R WCI  -3
MT. PLEASANT * PTCLDY    16   9  73 NW14G22   30.13R WCI   1
MUSCATINE *    CLOUDY    14   5  67 NW17      30.12R WCI  -3
QUAD CITIES    CLEAR     14   3  61 NW10      30.07R WCI   1
$$

IAZ062-063-075>077-085>089-095>099-100200-
   SOUTHEAST IOWA

CITY           SKY/WX    TMP DP  RH WIND       PRES   REMARKS
BURLINGTON     PTCLDY    14   6  70 NW12G24   30.10R WCI   0
FAIRFIELD *    CLOUDY    14   5  67 NW20G26   30.13R WCI  -3
FORT MADISON * CLEAR     14   7  73 NW21G26   30.11R WCI  -4
KEOKUK *       PTCLDY    16   7  67 NW12G22   30.12R WCI   3
OSKALOOSA *      N/A     14   9  79 NW18G24   30.15R WCI  -3
CENTERVILLE *  CLEAR     16   7  67 W12       30.16R WCI   3
OTTUMWA        CLOUDY    15   7  70 NW21      30.14R WCI  -2
WASHINGTON *   PTCLDY    14   5  67 NW22      30.13R WCI  -4
$$

ABBREVIATIONS USED IN REMARKS
   TC - TEMPERATURES IN CELSIUS
  WCI - WIND CHILL INDEX
   HX - HEAT INDEX
  VSB - VISIBILITY
$$





USA.gov is the U.S. government's official web portal to all federal, state and local government web resources and services.